Showing default

ERS 15, 2412

Orbit data source: Space-Track

ERS 15, 2412 is a payload satellite owned by USAF SSD (US) in LEO that was launched on Fri, 19 Aug 1966 UTC via an ATLAS SLV-3 AGENA D launch vehicle from the Air Force Western Test Range (AFWTR). Payloads include a variety of satellites, spacecraft, and rockets equipped with specific instruments for various scientific and technological missions. These include communications satellites like Starlink; space stations such as the ISS; scientific satellites like the Hubble; Earth observation satellites from companies like Planet Labs, Umbra, and HawkEye 360; GPS; miniature CubeSats for education and research; and military/defense satellites.

Loading next visibility...
ERS 15 details
Identifier
2412, 1966-077C
Orbit
LEO
Last TLE update1 day ago
Origin
Flag of USUSAF SSD (US)
ManufacturerTRW
MissionDefense Technology
Bus & MotorORS, Unknown motor
Mass5 kg wet, 5 kg dry
Launch date (UTC)
1966-08-19 (58 years ago)
Launch vehicle
ATLAS SLV-3 AGENA D
Launch site
Air Force Western Test Range (AFWTR)
Object type
Payload
Rocket body
Debris
Shape & HBROct Cyl, 0.2 m
Radar Cross Section0.045 m², Medium (>0.1 m² and < 1m²)

Expand to show TLE details & history

TLE from 1 day ago
0 ERS 15
1 02412U 66077C   24355.20031969  .00000002  00000-0  00000-0 0  9996
2 02412  90.3365 270.8794 0007580 254.7449 105.2565  8.59077596343740
Epoch: 2024-12-20T04:48Z
Definitive object data (Epoch: 2024-12-20T04:48:27.621Z)
Latitude0.00006°
Longitude109.49507°
Altitude3,696.467 km
Speed6.29 km/s
True Right ascension18h 03m 31s
True Declination0° 00' 00"
Sunlit
Object was in daylight at TLE epoch
Visualization TLE readout
Latitude88.46504°
Longitude96.90177°
Altitude3,713.531 km
Speed6.289 km/s
Apparent Right ascension01h 54m 21s
Apparent Declination51° 47' 42"
Sunlit
Object is in daylight
Visualization observer readout
Local Sidereal Time14:04:01
Azimuth1.495° NNE
Elevation1.735°
Doppler factor1
Orbital elements
Apogee altitude3,697.719 km
Perigee altitude3,682.456 km
Semi-major axis10,068.225 km
Eccentricity0.000758
Inclination90.3365°
RAAN270.8794°
Arg. of periapsis254.7449°
True anomaly105.34028°
Mean anomaly105.2565°
Eccentric anomaly105.29839°
Mean motion2.14839 °/min
BSTARUnknown
Orbital period167.57 mins
Loading maneuver chart data...
Loading historical data...
Loading historical data...
Loading historical data...
Loading historical data...
Loading historical data...
Loading historical data...
Loading historical data...

ERS 15 Visibility forecast

Observer location: undefined°, undefined

Span
Click to sort rows by Start time (UTC) header in descending order
Start Az.
Max El. time (UTC)
Max El. Az.
Max El.
End time (UTC)
End Az.
34 mins2024-12-21 17:11:48.269Z135.541° SSE2024-12-21 17:28:48.269Z68.368° E36.261°2024-12-21 17:45:48.269Z4.095° NNE
35 mins2024-12-21 19:57:48.269Z203.603° SW2024-12-21 20:14:48.269Z278.716° WNW38.791°2024-12-21 20:32:48.269Z353.004° N
34 mins2024-12-22 05:06:48.269Z9.829° NNE2024-12-22 05:23:48.269Z79.268° E35.337°2024-12-22 05:40:48.269Z148.485° SSE
34 mins2024-12-22 07:53:48.269Z356.287° N2024-12-22 08:10:48.269Z285.879° WNW39.432°2024-12-22 08:27:48.269Z216.323° SW
6 mins2024-12-22 10:47:48.269Z327.415° NNW2024-12-22 10:49:48.269Z320.803° NNW11.059°2024-12-22 10:53:48.269Z307.664° NW
|